THOR ABLESTAR DEB, 330

Orbit data source: Space-Track

THOR ABLESTAR DEB, 330 is space debris in LEO originally from a launch on Thu, 29 Jun 1961 UTC launched from the Air Force Eastern Test Range (AFETR). Debris objects in space refer to the collection of defunct objects orbiting the Earth. Examples of debris include non-operational satellites, rocket bodies, and fragments generated from explosions, collisions, or faulty payload assembly.

Loading next visibility...
Identifier
330, 1961-015DG
Orbit
LEO
Country
Flag of USUS
Related business
Manufacturer
Unknown
Mission
Spacecraft
Bus & Motor
Unknown
Mass
Unknown
Launch date (UTC)
1961-06-29 (65 years ago)
Launch vehicle
Unknown
Launch site
Air Force Eastern Test Range (AFETR)
Object type
Payload
Rocket body
Debris
Shape & HBR
Unknown shape, 0.1 m
Radar Cross Section
Medium (>0.1 m² and <1 m²)

Expand to show TLE details & history
Last TLE update: 16 hours ago

TLE from 16 hours ago
0 THOR ABLESTAR DEB
1   330U 61015DG  26256.24566921  .00000347  00000-0  25298-3 0  9998
2   330  66.9777  84.6416 0043479  49.3858 311.1000 14.06888598309097
Epoch: 2026-09-13T05:53Z
TLE epoch observation values (Epoch: 2026-09-13T05:53:45.819Z)
Latitude
0.00001°
Longitude
3.95761°
Altitude
851.503 km
Speed
7.438 km/s
True Right ascension
05h 38m 33s
True Declination
0° 00' 00"
Sunlit
Object was in daylight at epoch
Visualization orbit readout
Latitude
Unknown
Longitude
Unknown
Altitude
Unknown
Speed
Unknown
Apparent Right ascension
Unknown
Apparent Declination
Unknown
Sunlit
N/A
Visualization observer readout
Local Sidereal Time
14:27:09
Azimuth
Unknown
Elevation
Unknown
Doppler factor
Unknown
Orbital elements
Apogee altitude
899.906 km
Perigee altitude
836.892 km
Semi-major axis
7,246.536 km
Eccentricity
0.00435
Inclination
66.9777°
RAAN
84.6416°
Arg. of periapsis
49.3858°
True anomaly
310.72321°
Mean anomaly
311.1°
Eccentric anomaly
310.91174°
Mean motion
3.51842 °/min
Orbital period
102.32 mins
BSTAR
0.00025298
Loading maneuver chart data...
Computing Atmospheric mass density...

Documentation

Showing up to 5 results
|